SCP
0 0 0 0 0 0 0 0 0 0 -0 -0 -0 -0 -0 -0 -0 -0 0 0 0 0 0 1 2 2 2 0 0 0 0 0 0 0 0 0 0 0 0 0 0 0 0
0 0 0 0 0 0 0 0 0 0 -0 -0 -0 -0 -0 -0 -0 -0 -0 0 0 0 0 1 1 1 0 0 0 0 0 0 0 0 0 0 0 0 0 0 0 0 0
0 0 0 0 0 0 0 0 0 0 0 0 0 0 0 -0 -0 -0 -0 0 0 0 0 0 0 0 0 0 0 0 0 0 0 0 0 0 0 0 0 0 0 0 0
0 0 0 0 0 0 0 0 0 0 0 0 0 0 0 -0 -0 0 0 -0 0 0 0 0 0 0 0 0 0 0 0 0 0 0 0 0 0 0 0 0 0 0 0
0 0 0 0 0 0 0 0 0 0 0 0 0 0 0 0 0 0 0 0 -0 0 0 0 0 0 0 0 0 0 0 0 0 0 0 0 0 0 0 0 0 0 0
0 0 0 0 0 0 0 0 0 0 0 0 -0 0 -0 -0 0 0 0 0 -0 0 0 0 0 0 0 0 0 0 0 0 -0 0 0 0 0 0 0 0 0 0 0
0 0 0 0 0 0 0 0 0 0 0 0 0 -0 -0 -0 -0 -0 0 0 0 0 0 0 0 0 0 0 0 0 0 -0 0 0 0 0 0 0 0 0 0 0 0
0 -0 -0 -0 0 0 0 0 0 0 0 0 0 0 -0 -0 -0 -0 -0 -0 0 0 0 0 0 0 0 0 -0 -0 0 -0 -0 0 0 0 0 0 0 0 0 0 0
0 0 0 0 -0 -0 0 0 0 0 0 0 0 0 0 -0 -0 -0 -0 -0 -0 0 0 0 0 0 0 0 0 -0 0 0 0 0 0 0 0 0 0 0 0 0 0
0 0 0 0 0 0 0 0 0 0 0 0 0 0 -0 -0 -0 -0 -0 -0 0 0 0 0 0 0 0 0 0 0 0 0 0 0 0 0 0 0 0 0 0 0 0
0 0 0 0 0 0 0 0 0 0 0 0 0 0 -0 -0 -0 -0 0 0 0 0 0 0 0 0 0 0 0 0 0 0 0 0 0 0 0 0 0 0 0 0 0
0 0 0 0 0 0 0 0 0 0 0 0 0 -0 -0 -0 -0 0 0 0 0 0 0 0 0 0 0 0 0 0 0 0 0 0 0 0 0 0 0 0 0 0 0
0 0 0 0 0 0 0 0 0 0 0 0 0 0 0 0 0 0 0 0 0 0 0 0 0 0 0 0 0 0 0 0 0 0 0 0 0 0 0 0 0 0 0
0 0 0 0 0 0 0 0 0 0 0 0 0 0 0 0 0 0 0 0 0 0 0 0 0 0 0 0 0 0 0 0 0 0 0 0 0 0 0 0 0 0 0
0 0 0 0 0 0 0 0 0 0 0 0 0 0 0 0 0 0 0 0 0 0 0 0 0 0 0 0 0 0 0 0 0 0 0 0 0 0 0 0 0 0 0
-0 -0 0 0 0 0 0 0 0 0 0 0 0 0 0 0 0 -0 0 0 0 0 0 0 0 0 0 0 0 0 0 0 0 0 0 0 0 0 0 0 0 0 0
0 0 0 0 0 0 0 0 0 0 0 0 0 0 0 0 -0 0 0 0 0 0 0 0 0 0 -0 -0 0 0 0 0 0 0 0 0 0 0 0 0 0 0 0
0 0 0 0 0 0 0 0 0 0 0 0 0 0 -0 -0 -0 -0 -0 -0 -0 -0 0 0 0 -0 -0 -0 -0 -0 -0 0 0 0 0 0 0 0 0 0 0 0 0
0 0 0 0 0 0 0 0 0 0 0 0 0 0 -0 0 0 0 0 0 0 0 -0 0 -0 -0 -0 -0 -0 -0 -0 -0 -0 -0 0 -0 0 -0 0 -0 0 0 0
0 0 0 0 0 -0 -0 -0 -0 0 0 0 0 -0 -0 0 0 0 -0 -0 -0 0 0 0 0 0 0 0 -0 -0 -0 -0 -0 0 -0 -0 -0 -0 -0 -0 -0 0 -0
0 0 0 0 -0 0 0 0 -0 -0 -0 0 0 0 0 0 0 -0 -0 -0 -0 -0 -0 -0 -0 -0 -0 -0 -0 -0 0 0 0 0 0 -0 -0 0 0 -0 -0 -0 -0
-0 0 0 -0 -0 0 0 -0 0 -0 -0 -0 -0 0 0 -0 -0 -0 -0 -0 -0 -0 -0 -0 -0 -0 -0 -0 -0 0 0 0 0 -0 -0 0 -0 -0 -0 0 0 0 0
0 0 -0 0 0 0 -0 0 -0 0 0 0 -0 -0 -0 -0 0 -0 -0 -0 -0 -0 -0 -0 -0 -0 -0 -0 0 0 0 -0 -0 -0 0 -0 0 0 0 0 0 0 0
-0 -0 -0 0 -0 -0 -0 -0 0 0 -0 -0 -0 -0 0 0 -0 -0 -0 -0 -0 -0 -0 -0 -0 -0 -0 0 0 0 0 -0 -0 -0 -0 -0 -0 -0 -0 -0 0 0 0
0 0 0 0 -0 -0 0 0 0 -0 -0 -0 0 -0 -0 -0 -0 -0 -0 -0 -0 -0 -0 -0 -0 0 0 0 0 0 0 -0 -0 -0 0 0 0 0 0 0 0 0 0
-0 -0 0 0 0 -0 -0 -0 -0 -0 0 -0 -0 -0 -0 -0 -0 -0 -0 -0 -0 -0 0 -0 -0 -0 -0 0 0 -0 -0 -0 -0 0 -0 -0 -0 -0 0 0 0 0 0
Wind_Speed_500mb
33 30 28 27 28 19 17 30 35 42 47 50 62 71 74 74 66 62 58 52 47 49 52 48 60 68 68 56 51 36 30 34 38 36 43 45 48 51 53 51 50 47 48
47 50 46 45 48 34 30 30 35 45 57 63 63 64 71 70 69 63 59 59 57 44 42 49 45 62 66 62 48 47 24 45 37 31 37 47 50 58 48 51 52 54 51
62 52 48 45 38 40 38 43 51 57 58 61 63 64 58 52 55 58 60 56 48 42 38 29 46 49 58 61 38 29 27 31 35 39 39 22 25 52 62 60 57 56 55
49 44 37 33 36 40 46 46 38 44 47 49 47 42 47 47 49 48 50 49 44 32 25 22 23 41 23 20 27 24 16 27 43 39 43 42 45 44 50 66 65 54 55
32 30 27 25 26 31 34 36 41 49 46 37 50 48 51 44 42 45 46 44 43 31 26 26 21 26 35 36 34 33 31 20 41 60 50 52 56 50 49 57 63 58 52
27 25 30 37 42 42 41 45 44 37 40 47 46 53 59 58 50 43 46 49 43 30 23 14 11 6 6 9 26 28 23 21 55 59 47 47 48 46 43 46 51 57 49
24 26 34 42 43 42 38 35 38 31 36 40 46 51 58 61 58 55 51 42 44 42 31 19 20 13 8 12 17 23 26 54 52 56 52 52 50 43 43 47 55 54 51
28 36 39 38 36 30 32 31 31 28 31 32 35 44 50 57 60 57 51 44 43 43 34 31 16 5 14 4 25 39 44 54 54 56 58 56 52 48 43 39 42 52 57
21 19 29 29 32 32 33 27 28 24 35 39 29 33 43 49 55 56 54 48 46 42 38 31 23 21 25 31 49 54 56 54 54 52 48 47 46 43 38 33 33 38 34
17 25 24 27 24 27 24 25 32 37 42 51 51 51 56 62 61 57 54 52 45 43 41 41 32 23 22 34 39 38 40 39 39 40 38 36 35 35 25 23 28 37 40
22 27 26 23 22 27 35 36 46 51 55 58 63 65 70 72 60 53 52 45 40 40 38 33 26 24 22 20 23 25 22 27 23 19 22 24 24 25 24 25 28 32 34
17 20 16 23 29 35 43 55 75 76 64 68 69 68 64 61 49 43 39 39 38 37 31 18 17 15 12 14 13 11 11 11 13 12 13 12 14 16 17 20 25 32 34
20 27 30 35 45 57 58 66 65 67 61 78 69 53 47 44 36 26 28 34 33 30 21 13 8 8 11 12 8 7 7 13 14 15 14 17 16 16 16 18 22 25 28
26 36 47 49 52 50 55 64 59 59 68 71 59 45 38 34 33 27 29 26 24 17 10 9 9 8 9 8 7 9 11 12 12 14 13 12 13 14 15 15 16 16 17
44 50 50 54 54 59 65 52 55 62 68 56 42 41 38 33 33 21 20 26 20 7 4 8 9 9 5 7 8 11 12 11 12 9 9 10 10 9 10 9 11 9 8
45 52 56 60 66 64 62 64 57 57 50 43 40 41 33 28 20 19 16 16 7 7 9 13 14 15 11 11 10 13 14 7 8 11 14 17 13 7 2 5 14 22 25
47 55 68 64 60 66 65 63 54 51 38 36 39 35 23 24 17 18 10 8 10 11 18 25 27 34 32 29 26 29 31 31 27 12 15 33 33 35 21 17 18 20 16
60 68 71 60 69 68 53 51 39 24 32 34 22 30 25 21 14 11 16 20 21 24 26 27 26 21 22 17 18 27 29 30 28 23 21 19 23 32 33 36 40 36 34
63 67 67 59 64 49 44 43 34 26 25 24 25 21 17 15 19 27 36 41 35 31 27 26 21 19 21 24 20 25 30 34 40 33 33 25 22 27 28 33 35 37 39
62 71 54 60 56 54 34 31 27 23 21 21 17 14 22 31 40 41 31 29 29 28 27 30 30 27 28 30 25 26 29 37 35 36 35 24 26 26 20 24 24 30 27
63 59 53 57 49 24 22 25 21 20 17 11 17 29 40 46 39 37 36 33 32 34 32 31 35 37 39 38 37 28 31 34 36 37 36 33 31 23 20 13 13 20 16
65 53 53 47 31 13 11 18 18 17 11 28 40 50 46 37 33 32 33 32 34 36 38 40 42 37 33 33 31 33 28 28 31 36 34 31 26 26 23 22 20 17 15
51 47 44 31 18 12 10 6 9 9 33 36 49 31 28 26 31 36 38 37 33 34 33 31 29 32 35 32 31 26 29 26 31 29 29 23 23 24 25 17 11 9 12
47 42 25 15 13 12 12 12 14 35 44 40 36 35 35 35 33 31 32 32 35 38 39 36 42 43 36 40 42 33 18 19 28 22 22 23 21 17 14 11 14 13 16
46 20 11 11 12 15 19 19 38 43 44 42 41 40 37 35 39 40 42 43 41 41 42 45 42 37 38 39 36 35 32 25 21 26 28 22 19 17 20 21 23 20 18
12 5 10 11 15 21 23 41 45 45 43 43 40 35 33 35 40 43 45 44 46 47 43 35 32 35 36 39 42 37 36 33 25 32 30 29 32 35 29 24 21 19 19
Wind_Direction_500mb
109 88 75 62 50 51 53 28 9 8 359 353 344 342 342 341 335 330 336 318 302 279 276 270 253 258 248 250 248 243 266 265 273 278 281 287 290 293 298 302 305 303 293
90 72 74 74 77 86 60 37 10 351 345 342 345 346 340 339 336 334 340 339 327 304 298 272 268 252 252 253 249 250 247 278 256 262 276 289 291 294 299 302 307 310 308
82 68 60 59 52 39 19 358 341 331 331 332 329 335 338 336 341 345 351 351 337 333 328 297 263 254 257 258 270 265 253 257 275 268 270 278 280 301 299 302 304 308 311
75 65 48 27 10 359 342 337 348 351 349 344 335 344 349 358 5 2 3 353 353 344 338 321 287 245 228 217 211 214 194 233 282 277 280 280 285 296 304 304 305 308 306
59 50 32 14 344 326 336 337 342 344 347 2 4 352 1 352 358 9 10 2 354 2 11 14 2 299 261 230 224 242 230 261 294 292 288 290 293 293 299 301 303 301 305
35 18 6 349 332 330 333 335 333 351 347 350 356 348 348 352 353 352 354 357 360 354 351 339 312 302 280 286 259 236 238 242 273 275 277 281 291 295 297 293 298 306 309
37 24 3 351 344 336 339 339 346 352 354 347 350 347 343 346 344 352 351 344 341 356 339 358 335 248 222 174 218 221 253 273 264 267 275 281 284 288 290 291 298 296 296
42 23 16 11 4 355 347 355 345 343 346 347 350 346 341 339 338 345 347 337 331 327 336 322 305 243 201 137 272 283 257 268 272 275 277 281 283 283 284 282 295 296 290
32 29 13 21 20 15 355 351 356 336 335 341 339 328 330 332 333 336 338 331 332 320 319 323 304 248 224 214 232 252 262 272 275 278 282 285 286 288 283 275 285 282 275
33 16 7 6 358 354 2 340 332 324 319 319 321 322 322 322 323 322 325 325 323 325 322 310 310 294 257 246 257 273 272 278 284 287 292 294 294 286 274 267 274 269 267
13 5 1 351 352 342 333 329 325 321 318 318 318 317 314 317 317 312 314 317 317 326 327 326 317 312 293 279 275 279 282 290 292 299 311 314 312 302 285 269 264 258 257
347 354 354 343 337 336 330 330 329 320 316 319 320 319 318 316 312 309 309 312 319 328 330 329 326 322 321 329 320 316 349 350 346 336 333 325 330 325 318 294 277 267 254
11 354 348 338 331 327 326 325 322 317 320 322 320 318 319 321 318 316 312 310 315 324 335 341 353 36 44 27 16 23 22 26 9 5 356 357 1 349 338 312 292 280 258
1 347 338 331 325 322 329 323 319 319 321 326 321 327 323 319 321 316 314 311 311 314 334 8 44 60 72 68 37 6 28 25 20 12 1 11 4 351 350 335 322 314 291
340 335 332 327 322 322 326 321 315 318 324 327 331 330 327 323 320 302 316 318 332 356 58 50 60 67 52 51 33 32 41 43 44 28 17 32 21 1 26 24 23 39 102
340 338 333 329 327 327 326 323 313 319 326 331 332 334 332 323 310 318 339 345 11 54 53 42 45 52 55 61 76 82 61 45 87 73 59 56 37 19 94 126 98 107 118
339 330 327 330 327 327 326 324 315 317 332 333 329 344 344 350 355 345 344 62 76 74 69 83 75 72 76 84 54 65 61 56 59 72 77 80 59 60 114 130 125 124 134
334 331 331 327 327 327 328 328 323 328 329 331 332 343 350 1 15 65 79 70 71 82 87 76 81 93 81 77 74 85 72 67 48 63 105 83 55 71 62 67 76 76 68
333 333 329 326 331 334 333 335 325 322 330 340 340 345 9 52 85 94 85 80 76 78 85 74 57 62 59 58 66 85 82 75 61 83 78 77 98 87 91 92 96 93 91
334 334 329 331 331 331 335 350 350 338 339 340 356 44 88 96 92 87 87 80 71 72 76 74 63 59 69 73 72 78 75 71 69 70 66 93 95 86 89 67 83 90 81
331 335 331 332 335 344 2 349 353 7 351 9 83 99 103 98 93 95 87 80 77 77 75 73 76 76 80 79 70 69 77 76 75 81 85 94 91 93 79 69 69 66 79
335 333 332 334 341 333 340 350 3 4 39 107 111 109 106 103 100 92 83 83 79 80 84 83 78 79 78 81 77 77 81 74 80 76 80 87 87 86 82 79 72 65 52
331 331 334 343 357 3 348 3 11 63 117 115 104 92 88 81 85 91 86 86 83 78 74 87 74 78 77 68 74 72 69 82 77 75 89 87 81 77 73 67 78 36 28
327 331 340 7 49 54 76 75 102 123 114 97 94 87 89 88 85 90 94 87 81 76 66 76 80 81 73 65 55 64 76 66 72 91 89 88 68 65 59 54 38 35 52
315 328 354 84 55 83 88 105 123 116 104 97 93 90 89 90 99 96 93 85 75 70 68 69 73 73 73 63 54 60 70 81 73 94 84 66 60 45 34 44 66 73 77
326 17 106 105 105 98 105 121 114 108 105 103 99 102 101 97 96 95 91 85 78 72 70 63 75 65 70 68 59 69 79 78 85 81 64 57 54 59 60 66 74 81 85
Wind_Speed_850mb
33 30 28 27 28 19 17 30 35 42 47 50 62 71 74 74 66 62 58 52 47 49 52 48 60 68 68 56 51 36 30 34 38 36 43 45 48 51 53 51 50 47 48
47 50 46 45 48 34 30 30 35 45 57 63 63 64 71 70 69 63 59 59 57 44 42 49 45 62 66 62 48 47 24 45 37 31 37 47 50 58 48 51 52 54 51
62 52 48 45 38 40 38 43 51 57 58 61 63 64 58 52 55 58 60 56 48 42 38 29 46 49 58 61 38 29 27 31 35 39 39 22 25 52 62 60 57 56 55
49 44 37 33 36 40 46 46 38 44 47 49 47 42 47 47 49 48 50 49 44 32 25 22 23 41 23 20 27 24 16 27 43 39 43 42 45 44 50 66 65 54 55
32 30 27 25 26 31 34 36 41 49 46 37 50 48 51 44 42 45 46 44 43 31 26 26 21 26 35 36 34 33 31 20 41 60 50 52 56 50 49 57 63 58 52
27 25 30 37 42 42 41 45 44 37 40 47 46 53 59 58 50 43 46 49 43 30 23 14 11 6 6 9 26 28 23 21 55 59 47 47 48 46 43 46 51 57 49
24 26 34 42 43 42 38 35 38 31 36 40 46 51 58 61 58 55 51 42 44 42 31 19 20 13 8 12 17 23 26 54 52 56 52 52 50 43 43 47 55 54 51
28 36 39 38 36 30 32 31 31 28 31 32 35 44 50 57 60 57 51 44 43 43 34 31 16 5 14 4 25 39 44 54 54 56 58 56 52 48 43 39 42 52 57
21 19 29 29 32 32 33 27 28 24 35 39 29 33 43 49 55 56 54 48 46 42 38 31 23 21 25 31 49 54 56 54 54 52 48 47 46 43 38 33 33 38 34
17 25 24 27 24 27 24 25 32 37 42 51 51 51 56 62 61 57 54 52 45 43 41 41 32 23 22 34 39 38 40 39 39 40 38 36 35 35 25 23 28 37 40
22 27 26 23 22 27 35 36 46 51 55 58 63 65 70 72 60 53 52 45 40 40 38 33 26 24 22 20 23 25 22 27 23 19 22 24 24 25 24 25 28 32 34
17 20 16 23 29 35 43 55 75 76 64 68 69 68 64 61 49 43 39 39 38 37 31 18 17 15 12 14 13 11 11 11 13 12 13 12 14 16 17 20 25 32 34
20 27 30 35 45 57 58 66 65 67 61 78 69 53 47 44 36 26 28 34 33 30 21 13 8 8 11 12 8 7 7 13 14 15 14 17 16 16 16 18 22 25 28
26 36 47 49 52 50 55 64 59 59 68 71 59 45 38 34 33 27 29 26 24 17 10 9 9 8 9 8 7 9 11 12 12 14 13 12 13 14 15 15 16 16 17
44 50 50 54 54 59 65 52 55 62 68 56 42 41 38 33 33 21 20 26 20 7 4 8 9 9 5 7 8 11 12 11 12 9 9 10 10 9 10 9 11 9 8
45 52 56 60 66 64 62 64 57 57 50 43 40 41 33 28 20 19 16 16 7 7 9 13 14 15 11 11 10 13 14 7 8 11 14 17 13 7 2 5 14 22 25
47 55 68 64 60 66 65 63 54 51 38 36 39 35 23 24 17 18 10 8 10 11 18 25 27 34 32 29 26 29 31 31 27 12 15 33 33 35 21 17 18 20 16
60 68 71 60 69 68 53 51 39 24 32 34 22 30 25 21 14 11 16 20 21 24 26 27 26 21 22 17 18 27 29 30 28 23 21 19 23 32 33 36 40 36 34
63 67 67 59 64 49 44 43 34 26 25 24 25 21 17 15 19 27 36 41 35 31 27 26 21 19 21 24 20 25 30 34 40 33 33 25 22 27 28 33 35 37 39
62 71 54 60 56 54 34 31 27 23 21 21 17 14 22 31 40 41 31 29 29 28 27 30 30 27 28 30 25 26 29 37 35 36 35 24 26 26 20 24 24 30 27
63 59 53 57 49 24 22 25 21 20 17 11 17 29 40 46 39 37 36 33 32 34 32 31 35 37 39 38 37 28 31 34 36 37 36 33 31 23 20 13 13 20 16
65 53 53 47 31 13 11 18 18 17 11 28 40 50 46 37 33 32 33 32 34 36 38 40 42 37 33 33 31 33 28 28 31 36 34 31 26 26 23 22 20 17 15
51 47 44 31 18 12 10 6 9 9 33 36 49 31 28 26 31 36 38 37 33 34 33 31 29 32 35 32 31 26 29 26 31 29 29 23 23 24 25 17 11 9 12
47 42 25 15 13 12 12 12 14 35 44 40 36 35 35 35 33 31 32 32 35 38 39 36 42 43 36 40 42 33 18 19 28 22 22 23 21 17 14 11 14 13 16
46 20 11 11 12 15 19 19 38 43 44 42 41 40 37 35 39 40 42 43 41 41 42 45 42 37 38 39 36 35 32 25 21 26 28 22 19 17 20 21 23 20 18
12 5 10 11 15 21 23 41 45 45 43 43 40 35 33 35 40 43 45 44 46 47 43 35 32 35 36 39 42 37 36 33 25 32 30 29 32 35 29 24 21 19 19
Wind_Direction_850mb
109 88 75 62 50 51 53 28 9 8 359 353 344 342 342 341 335 330 336 318 302 279 276 270 253 258 248 250 248 243 266 265 273 278 281 287 290 293 298 302 305 303 293
90 72 74 74 77 86 60 37 10 351 345 342 345 346 340 339 336 334 340 339 327 304 298 272 268 252 252 253 249 250 247 278 256 262 276 289 291 294 299 302 307 310 308
82 68 60 59 52 39 19 358 341 331 331 332 329 335 338 336 341 345 351 351 337 333 328 297 263 254 257 258 270 265 253 257 275 268 270 278 280 301 299 302 304 308 311
75 65 48 27 10 359 342 337 348 351 349 344 335 344 349 358 5 2 3 353 353 344 338 321 287 245 228 217 211 214 194 233 282 277 280 280 285 296 304 304 305 308 306
59 50 32 14 344 326 336 337 342 344 347 2 4 352 1 352 358 9 10 2 354 2 11 14 2 299 261 230 224 242 230 261 294 292 288 290 293 293 299 301 303 301 305
35 18 6 349 332 330 333 335 333 351 347 350 356 348 348 352 353 352 354 357 360 354 351 339 312 302 280 286 259 236 238 242 273 275 277 281 291 295 297 293 298 306 309
37 24 3 351 344 336 339 339 346 352 354 347 350 347 343 346 344 352 351 344 341 356 339 358 335 248 222 174 218 221 253 273 264 267 275 281 284 288 290 291 298 296 296
42 23 16 11 4 355 347 355 345 343 346 347 350 346 341 339 338 345 347 337 331 327 336 322 305 243 201 137 272 283 257 268 272 275 277 281 283 283 284 282 295 296 290
32 29 13 21 20 15 355 351 356 336 335 341 339 328 330 332 333 336 338 331 332 320 319 323 304 248 224 214 232 252 262 272 275 278 282 285 286 288 283 275 285 282 275
33 16 7 6 358 354 2 340 332 324 319 319 321 322 322 322 323 322 325 325 323 325 322 310 310 294 257 246 257 273 272 278 284 287 292 294 294 286 274 267 274 269 267
13 5 1 351 352 342 333 329 325 321 318 318 318 317 314 317 317 312 314 317 317 326 327 326 317 312 293 279 275 279 282 290 292 299 311 314 312 302 285 269 264 258 257
347 354 354 343 337 336 330 330 329 320 316 319 320 319 318 316 312 309 309 312 319 328 330 329 326 322 321 329 320 316 349 350 346 336 333 325 330 325 318 294 277 267 254
11 354 348 338 331 327 326 325 322 317 320 322 320 318 319 321 318 316 312 310 315 324 335 341 353 36 44 27 16 23 22 26 9 5 356 357 1 349 338 312 292 280 258
1 347 338 331 325 322 329 323 319 319 321 326 321 327 323 319 321 316 314 311 311 314 334 8 44 60 72 68 37 6 28 25 20 12 1 11 4 351 350 335 322 314 291
340 335 332 327 322 322 326 321 315 318 324 327 331 330 327 323 320 302 316 318 332 356 58 50 60 67 52 51 33 32 41 43 44 28 17 32 21 1 26 24 23 39 102
340 338 333 329 327 327 326 323 313 319 326 331 332 334 332 323 310 318 339 345 11 54 53 42 45 52 55 61 76 82 61 45 87 73 59 56 37 19 94 126 98 107 118
339 330 327 330 327 327 326 324 315 317 332 333 329 344 344 350 355 345 344 62 76 74 69 83 75 72 76 84 54 65 61 56 59 72 77 80 59 60 114 130 125 124 134
334 331 331 327 327 327 328 328 323 328 329 331 332 343 350 1 15 65 79 70 71 82 87 76 81 93 81 77 74 85 72 67 48 63 105 83 55 71 62 67 76 76 68
333 333 329 326 331 334 333 335 325 322 330 340 340 345 9 52 85 94 85 80 76 78 85 74 57 62 59 58 66 85 82 75 61 83 78 77 98 87 91 92 96 93 91
334 334 329 331 331 331 335 350 350 338 339 340 356 44 88 96 92 87 87 80 71 72 76 74 63 59 69 73 72 78 75 71 69 70 66 93 95 86 89 67 83 90 81
331 335 331 332 335 344 2 349 353 7 351 9 83 99 103 98 93 95 87 80 77 77 75 73 76 76 80 79 70 69 77 76 75 81 85 94 91 93 79 69 69 66 79
335 333 332 334 341 333 340 350 3 4 39 107 111 109 106 103 100 92 83 83 79 80 84 83 78 79 78 81 77 77 81 74 80 76 80 87 87 86 82 79 72 65 52
331 331 334 343 357 3 348 3 11 63 117 115 104 92 88 81 85 91 86 86 83 78 74 87 74 78 77 68 74 72 69 82 77 75 89 87 81 77 73 67 78 36 28
327 331 340 7 49 54 76 75 102 123 114 97 94 87 89 88 85 90 94 87 81 76 66 76 80 81 73 65 55 64 76 66 72 91 89 88 68 65 59 54 38 35 52
315 328 354 84 55 83 88 105 123 116 104 97 93 90 89 90 99 96 93 85 75 70 68 69 73 73 73 63 54 60 70 81 73 94 84 66 60 45 34 44 66 73 77
326 17 106 105 105 98 105 121 114 108 105 103 99 102 101 97 96 95 91 85 78 72 70 63 75 65 70 68 59 69 79 78 85 81 64 57 54 59 60 66 74 81 85